Regional Weather Roundup
Issued by NWS

Home | Current Version | Previous Version | Graphics & Text | Print | Product List | Glossary On
Versions: 1 2 3 4 5 6 7 8 9 10 11 12 13 14 15 16 17 18 19 20 21 22 23 24 25 26 27 28 29 30 31 32 33 34 35 36 37 38 39 40 41 42 43 44 45 46 47 48 49 50
000
ASUS45 KABQ 041110
RWRNM
WEATHER ROUNDUP FOR NEW MEXICO
NATIONAL WEATHER SERVICE ALBUQUERQUE NM
500 AM MDT MON MAY 04 2015

NOTE: "FAIR" MEANS FEW OR NO CLOUDS BELOW 12,000 FEET AGL WITH NO
       SIGNIFICANT WEATHER OR OBSTRUCTIONS TO VISION.

      THIS PRODUCT IS RELEASED AS TWO VERSIONS.  ONE VERSION NEAR
      THE TOP OF THE HOUR CONTAINING PRELIMINARY DATA FROM ALBUQUERQUE
      AND OTHER STATIONS.  A FINAL VERSION WITH ADDITIONAL DATA IS
      ISSUED ABOUT 10 MINUTES AFTER THE HOUR.

NMZ501-503-504-510>518-041200-
NORTHWEST PLATEAU/NORTHCENTRAL MOUNTAINS

CITY           SKY/WX    TMP DP  RH WIND       PRES   REMARKS
FARMINGTON     CLEAR     48  38  68 E7        30.01S
LOS ALAMOS     MOCLDY    49  39  68 CALM      30.12S
SANTA FE       MOCLDY    50  40  68 N9        30.07S
TAOS           CLOUDY    39  30  70 N6        30.12R WCI  35
ANGEL FIRE     FAIR      34  33  96 NE6       30.18S WCI  28

$$
NMZ402-403-502-505>509-041200-
WESTCENTRAL MOUNTAINS/SOUTHWEST MOUNTAINS

CITY           SKY/WX    TMP DP  RH WIND       PRES   REMARKS
GALLUP         MOCLDY    50  38  63 N8        30.05F
GRANTS         CLEAR     39  34  81 NW5       30.07S
SILVER CITY      N/A     59  34  38 NW7       30.00S

$$
NMZ407-409-411-412-041200-
SOUTHERN DESERTS

CITY           SKY/WX    TMP DP  RH WIND       PRES   REMARKS
LORDSBURG      FAIR      57  34  41 W5        29.93S
DEMING         CLOUDY    59  38  45 N7        29.95R
LAS CRUCES     PTCLDY    57  44  62 NW8       29.95R
HOLLOMAN AFB   MOCLDY    62  48  60 NE12      29.91F
ALAMOGORDO     CLOUDY    64  45  48 NE7       29.92F
T OR C         CLOUDY    60  36  40 NW9       29.98R

$$
NMZ519>523-041200-
CENTRAL VALLEYS/CENTRAL HIGHLANDS

CITY           SKY/WX    TMP DP  RH WIND       PRES   REMARKS
ALBUQUERQUE    PTCLDY    59  41  51 NE10      30.00F
DOUBLE EAGLE   PTCLDY    51  40  66 N9        30.03F
MORIARTY ARPT  FAIR      43  35  73 N7        30.07R
CLINES CORNERS CLOUDY    49  38  65 E7        30.07R
BELEN          FAIR      55  39  54 NW5       30.01R
SOCORRO        FAIR      58  41  51 CALM      30.01R

$$
NMZ524>526-539-540-041200-
SOUTHCENTRAL MOUNTAINS

CITY           SKY/WX    TMP DP  RH WIND       PRES   REMARKS
RUIDOSO        LGT RAIN  52  41  66 SW18G31   30.12R

$$
NMZ527>531-041200-
NORTHEAST HIGHLANDS/NORTHEAST PLAINS

CITY           SKY/WX    TMP DP  RH WIND       PRES   REMARKS
LAS VEGAS      MOCLDY    41  36  82 NE9       30.10R
RATON          CLEAR     41  37  86 NE7       30.08S
CLAYTON        CLOUDY    54  46  74 W8        30.01R

$$
NMZ532>537-041200-
EASTCENTRAL PLAINS

CITY           SKY/WX    TMP DP  RH WIND       PRES   REMARKS
TUCUMCARI        N/A     53  48  83 CALM      29.96S
CANNON AFB     PTCLDY    53  50  90 SE3       29.99R
CLOVIS AIRPORT PTCLDY    52  46  82 SE8       29.99S

$$
NMZ028-029-538-041200-
SOUTHEAST PLAINS

CITY           SKY/WX    TMP DP  RH WIND       PRES   REMARKS
ROSWELL        MOCLDY    59  50  72 SW6       29.92R
ARTESIA        PTCLDY    55  48  76 CALM      29.93R
CARLSBAD       MOCLDY    62  50  64 N9        29.90R
HOBBS          CLEAR     55  55 100 E7        29.93S


$$



USA.gov is the U.S. government's official web portal to all federal, state and local government web resources and services.